Location: Hartha
(51.1030°N, 12.9600°E)
Time: 04:48:57
(UTC+02:00)

Daily predictions for brighter satellites

Satellite Brightness Start Highest point End
(mag) Time Altitude Azimuth Time Altitude Azimuth Time Altitude Azimuth
USA 276 1.8 00:02:29 10° WSW 00:05:28 68° S 00:08:28 10° E
Cosmos 1328 4.5 00:04:04 15° SSW 00:07:16 52° WNW 00:11:13 10° N
Cosmos 1331 Rocket 4.3 00:04:31 10° SSW 00:09:48 68° WNW 00:15:07 10° NNE
In-Cosmos 22 Rocket 4.4 00:06:27 21° S 00:10:06 59° E 00:15:30 10° NNE
X-37B 2.7 00:12:33 10° WSW 00:12:57 12° SW 00:12:57 12° SW
Cosmos 1408 2.5 00:15:25 26° SSW 00:17:15 74° W 00:20:43 10° N
Lacrosse 5 4.0 00:16:12 10° W 00:18:12 12° WSW 00:20:08 10° SW
USA 234 3.4 00:14:25 18° SSE 00:19:14 55° SW 00:25:41 10° WNW
Terra 4.2 00:18:44 10° WSW 00:21:20 14° W 00:23:56 10° NW
FALCON 9 DEB 3.2 00:19:18 10° WNW 00:22:35 70° NNE 00:25:51 10° E
Cosmos 2322 Rocket 3.4 00:18:59 10° NNW 00:24:17 38° NE 00:29:34 10° ESE
Cosmos 2333 Rocket 4.4 00:20:05 10° NNW 00:24:33 22° NE 00:29:01 10° E
Cosmos 1833 Rocket 3.2 00:19:11 10° SW 00:24:43 60° NW 00:30:19 10° NNE
Cosmos 1867 3.6 00:22:17 10° NW 00:27:46 73° SW 00:31:18 22° SSE
Cosmos 2278 3.7 00:22:48 10° NNW 00:28:34 88° WSW 00:32:24 22° SSE
SL-8 Rocket 4.2 00:23:17 10° NNW 00:29:29 65° W 00:33:46 21° S
ATLAS 5 CENTAUR R/B 2.6 00:30:25 22° SE 00:30:55 22° ESE 00:34:07 10° ENE
Cosmos 1812 Rocket 3.9 00:27:28 10° N 00:31:55 60° ENE 00:34:25 25° SSE
ALOS 2 2.6 00:32:45 27° S 00:35:09 78° WSW 00:39:34 10° NNW
Cosmos 1302 Rocket 4.1 00:31:56 16° SSW 00:36:05 79° WNW 00:41:19 10° NNE
Cosmos 2218 Rocket 4.3 00:35:13 10° NNW 00:41:33 64° W 00:45:53 21° S
Cosmos 2366 rocket 4.3 00:39:06 10° NNW 00:45:18 60° W 00:49:34 21° SSW
Aureole 1 Rocket 4.4 00:39:04 10° NNW 00:45:51 89° WSW 00:51:53 20° SSE
Cosmos 2082 Rocket 2.2 00:42:49 16° SSW 00:47:29 85° WNW 00:53:14 10° NNE
Cosmos 1602 Rocket 3.6 00:45:32 28° S 00:47:40 66° E 00:51:59 10° NNE
H-2A R/B 3.5 00:44:35 10° NNE 00:48:48 83° WNW 00:51:10 26° SSW
Cosmos 1825 2.7 00:58:50 25° SW 01:00:46 52° WNW 01:04:26 10° N
Cosmos 2360 Rocket 3.1 00:58:23 10° NNW 01:03:53 47° NE 01:09:20 10° SE
ERS-2 2.0 01:00:51 10° NNE 01:04:27 75° ESE 01:05:53 34° S
Cosmos-2242 2.9 01:01:56 10° NNW 01:06:11 81° W 01:08:16 30° S
Cosmos 1626 Rocket 4.2 01:10:22 21° SW 01:12:58 48° WNW 01:17:12 10° N
Cosmos 1606 2.6 01:12:44 10° NNW 01:16:36 85° W 01:18:18 32° S
Cosmos 1934 Rocket 4.1 01:12:01 10° N 01:18:05 69° ENE 01:22:23 20° SSE
Cosmos 2058 3.3 01:16:21 28° SSE 01:18:19 55° E 01:22:26 10° NNE
BREEZE-M DEB (TANK) 4.2 01:14:40 10° W 01:18:29 66° S 01:34:51 10° ESE
Cosmos 1825 Rocket 3.6 01:22:58 29° S 01:25:06 71° E 01:29:26 10° NNE
ADEOS Rocket 4.0 01:20:28 20° SSW 01:25:13 47° W 01:32:36 10° NNW
USA 267 3.7 01:19:54 10° ENE 01:26:22 65° NNW 01:32:49 10° W
COSMOS 2406 4.5 01:21:20 10° WSW 01:26:44 39° NW 01:32:08 10° NNE
Cosmos 1633 3.1 01:25:15 27° SW 01:26:46 48° WNW 01:30:10 10° N
CRYOSAT 2 4.4 01:25:28 26° S 01:28:19 85° E 01:33:15 10° N
SL-16 R/B 2.2 01:23:53 10° NW 01:29:32 67° WSW 01:33:07 23° SSE
SL-19 R/B 4.4 01:31:17 26° SSE 01:33:14 69° ENE 01:37:22 10° NNW
Cosmos 972 Rocket 4.3 01:29:32 10° NNW 01:34:33 66° ENE 01:38:53 16° SSE
Cosmos 1980 Rocket 3.9 01:31:50 10° NW 01:35:45 19° W 01:38:21 14° SW
SJ 16-02 1.4 01:32:28 10° NNW 01:36:54 69° WSW 01:39:13 27° S
Cosmos 1842 Rocket 4.4 01:35:28 10° N 01:39:50 47° ENE 01:43:02 17° SE
USA 276 1.9 01:38:06 10° W 01:41:04 57° SSW 01:44:01 10° ESE
Meteor 2-2 Rocket 4.4 01:35:56 10° NNW 01:41:56 78° W 01:45:55 22° S
Cosmos 2219 Rocket 3.3 01:38:51 10° NNW 01:44:17 44° NE 01:49:41 10° ESE
CZ-2D R/B 3.8 01:45:35 10° NE 01:49:38 22° E 01:53:35 10° SE
Cosmos 1340 Rocket 2.8 01:48:44 30° S 01:50:36 76° E 01:54:33 10° NNE
Resurs 1-4 Rocket 3.6 01:53:23 10° NE 01:57:54 27° E 02:01:56 12° SSE
Cosmos 1605 Rocket 4.1 01:51:30 10° N 01:57:57 84° E 02:02:51 18° SSE
FALCON 9 DEB 3.4 01:55:40 10° W 01:58:46 39° SSW 01:59:15 36° S
Nadezhda 3 Rocket 4.5 01:56:24 19° SW 02:00:46 51° WNW 02:06:47 10° N
Cosmos 44 4.5 01:59:10 19° SSE 02:01:13 26° ESE 02:04:56 10° ENE
Cosmos 2221 2.5 01:58:32 10° NNW 02:02:54 82° W 02:05:27 24° S
PSLV R/B 4.5 01:59:16 10° N 02:03:51 48° WNW 02:07:00 19° SW
Meteor 2-3 Rocket 4.3 02:01:01 18° SSE 02:04:57 49° E 02:10:20 10° NNE
Cosmos 2322 Rocket 2.6 02:03:03 10° NW 02:08:29 48° WSW 02:11:58 21° S
Cosmos 2333 Rocket 2.3 02:03:58 10° NNW 02:09:46 80° ENE 02:15:33 10° SSE
Cosmos 1782 3.4 02:07:46 10° N 02:11:43 54° ENE 02:14:39 16° SSE
Cosmos 990 Rocket 4.4 02:06:45 10° NNW 02:11:52 61° ENE 02:16:57 10° SE
Cosmos 2151 3.9 02:11:06 18° SSE 02:13:55 41° E 02:17:58 10° NNE
ATLAS 5 CENTAUR R/B 2.0 02:11:50 14° WSW 02:14:59 54° NW 02:19:21 10° NE
Geosat 4.4 02:24:26 20° S 02:27:35 45° WSW 02:32:25 10° NW
Cosmos 2082 Rocket 4.2 02:27:56 10° W 02:32:26 23° NW 02:36:56 10° NNE
MOS 1 Rocket 4.0 02:27:58 10° SSE 02:32:55 60° ENE 02:38:09 10° N
ADEOS II 3.4 02:33:57 10° NNE 02:38:39 32° E 02:43:19 10° SSE
Cosmos 1898 Rocket 3.8 02:33:38 10° NNW 02:38:49 68° ENE 02:43:58 10° SSE
BREEZE-M DEB (TANK) 4.2 02:30:25 10° WNW 02:38:49 36° SW 02:41:34 14° SSE
Cosmos 2333 4.3 02:34:05 10° NW 02:39:49 66° WSW 02:45:23 11° SSE
NPP 4.3 02:35:31 10° NNE 02:40:46 48° E 02:45:17 14° S
MOZ.5/SAFIR/RUBIN 5/SL-8 4.1 02:39:14 19° S 02:42:25 52° W 02:47:05 10° NNW
SL-24 DEB 4.2 02:39:40 17° S 02:43:13 90° ENE 02:47:50 10° N
SL-4 R/B 2.6 02:43:04 23° SSW 02:44:37 33° SSE 02:48:08 10° E
Cosmos 1812 2.6 02:40:54 10° N 02:44:44 86° W 02:47:34 17° S
Cosmos 1833 4.2 02:43:04 18° SSW 02:47:18 89° WNW 02:52:56 10° NNE
Cosmos 2360 Rocket 2.8 02:42:37 10° NW 02:47:49 38° WSW 02:51:35 17° SSW
Cosmos 1933 3.7 02:44:23 10° NNW 02:48:16 49° W 02:50:44 20° SSW
SL-16 R/B 2.6 02:44:07 10° SSE 02:50:24 85° ENE 02:56:42 10° NNW
SL-27 R/B 2.3 02:48:57 23° SSW 02:50:51 73° ESE 02:54:09 10° NNE
CZ-4 R/B 4.2 02:47:16 10° NNE 02:52:05 64° ESE 02:56:05 15° S
COSMOS 2487 2.2 02:51:18 24° S 02:53:00 67° ESE 02:56:04 10° NNE
Cosmos 540 Rocket 4.3 02:49:46 13° S 02:53:55 42° ESE 02:58:46 10° NE
Cosmos 1937 Rocket 3.8 02:49:46 10° NNW 02:55:03 68° ENE 03:00:16 10° SSE
COSMOS 2428 2.7 02:51:32 10° NNW 02:57:18 89° SW 03:03:01 10° SSE
Cosmos 1076 Rocket 4.0 03:03:05 17° SW 03:06:12 48° WNW 03:10:28 10° N
Cosmos 2237 Rocket 3.2 03:02:51 10° NNW 03:08:25 50° NE 03:13:54 10° SE
NOSS 8 (A) 4.4 03:06:26 16° SW 03:08:55 64° NW 03:11:48 10° NE
Cosmos 1340 3.2 03:05:16 10° N 03:08:57 57° ENE 03:12:36 10° SSE
USA 267 4.1 03:02:39 10° ENE 03:08:58 54° N 03:15:18 10° WNW
COSMOS 2455 3.7 03:03:26 10° NNW 03:09:22 54° NE 03:15:15 10° ESE
Thor Agena Rocket 3.9 03:04:50 10° N 03:09:58 58° WNW 03:14:13 15° SW
SL-23 DEB 4.3 03:10:44 19° SSW 03:12:29 33° SSE 03:15:47 10° E
SL-16 R/B 4.1 03:10:27 10° WNW 03:12:33 12° W 03:14:39 10° WSW
Cosmos 1727 Rocket 4.2 03:09:09 15° SSW 03:14:29 63° WNW 03:20:46 10° N
IDEFIX/ARIANE 42P 3.1 03:09:47 10° NNE 03:14:55 53° E 03:20:00 10° S
Cosmos 2322 3.9 03:10:03 10° NW 03:15:35 53° WSW 03:21:03 10° S
USA 276 3.3 03:14:06 10° W 03:16:22 19° SSW 03:18:37 10° SSE
Cosmos 2297 Rocket 3.9 03:13:44 10° SSE 03:18:15 25° ESE 03:22:48 10° NE
CENTAUR R/B 3.2 03:16:48 12° S 03:21:56 45° ESE 03:28:36 10° NE
Meteor 1-28 Rocket 3.1 03:18:36 10° SSE 03:22:16 87° WSW 03:26:00 10° NNW
ISS -2.2 03:22:08 14° S 03:24:01 22° SE 03:26:43 10° E
Meteor 1-10 Rocket 4.5 03:18:44 10° NNW 03:24:43 82° ENE 03:30:35 10° SSE
Gbstr 26 Del rocket 3.6 03:22:01 12° SW 03:26:34 64° SSE 03:32:34 10° ENE
Cosmos 1328 Rocket 4.0 03:22:38 10° N 03:27:04 63° ENE 03:31:25 10° SSE
Cosmos 1459 Rocket 4.1 03:21:52 10° NNW 03:27:49 60° W 03:33:44 10° S
Cosmos 2219 Rocket 2.7 03:22:58 10° NW 03:28:14 41° WSW 03:33:29 10° S
Meteor 2-6 Rocket 4.4 03:22:27 10° NNW 03:28:24 70° W 03:34:12 10° S
CZ-2D R/B 2.3 03:24:58 10° N 03:30:07 63° WNW 03:34:54 12° SSW
USA 290 2.8 03:28:24 10° NW 03:31:27 38° WSW 03:34:22 11° S
Cosmos 2100 Rocket 4.3 03:26:03 10° NNW 03:32:14 53° W 03:38:22 10° SSW
Cosmos 1151 Rocket 3.0 03:28:39 10° NNW 03:33:02 75° W 03:37:24 10° S
NOSS 0 Rocket 3.9 03:27:44 10° NNW 03:33:57 79° WSW 03:40:06 10° SSE
Helios 1A 3.0 03:29:53 10° SSE 03:34:05 89° SW 03:38:18 10° NNW
SAR-Lupe-2 3.7 03:31:00 10° NNE 03:34:36 73° ESE 03:38:07 10° S
NOSS 3-2 (C) 4.5 03:31:45 10° S 03:36:40 34° ESE 03:42:15 10° NE
Resurs 1-4 Rocket 2.5 03:32:49 10° N 03:38:01 54° WNW 03:43:01 11° SW
Cosmos 1766 Rocket 3.7 03:37:40 10° S 03:42:01 72° E 03:46:22 10° NNE
Cosmos 1725 Rocket 4.0 03:35:55 10° NNW 03:42:06 76° W 03:48:15 10° S
Cosmos 44 3.5 03:37:35 10° SW 03:42:08 57° NW 03:46:32 10° NE
Cosmos 1862 3.7 03:41:29 12° SSW 03:45:01 50° WNW 03:48:52 10° N
Cosmos 2123 Rocket 4.1 03:39:49 10° S 03:46:06 84° W 03:52:28 10° N
Cosmos 1763 Rocket 4.0 03:41:29 11° SW 03:46:26 52° WNW 03:51:38 10° NNE
Cosmos 2233 Rocket 4.1 03:42:00 10° N 03:48:11 84° E 03:54:20 10° S
Cosmos 841 Rocket 3.5 03:45:57 10° SSW 03:51:05 83° ESE 03:56:18 10° NNE
Cosmos 2333 Rocket 3.6 03:49:14 10° NW 03:53:25 21° W 03:57:35 10° SSW
Cosmos 1400 Rocket 4.4 03:49:54 10° SSE 03:53:25 32° E 03:57:01 10° NNE
ALOS 4.2 03:49:37 10° NE 03:53:32 26° E 03:57:25 10° SSE
Cosmos 372 Rocket 4.1 03:48:28 10° NNW 03:53:38 59° WSW 03:58:44 10° S
USA 238 DEB 4.3 03:48:52 10° SSW 03:54:58 46° ESE 04:01:26 10° NE
USA 238 4.4 03:49:01 10° SSW 03:55:06 46° ESE 04:01:34 10° NE
Okean 3 Rocket 3.7 03:52:44 10° S 03:57:15 82° E 04:01:49 10° NNE
Cosmos 2016 Rocket 4.2 03:53:47 10° NNW 03:59:41 52° W 04:05:33 10° SSW
ATLAS 5 CENTAUR R/B 3.9 03:57:18 10° WNW 04:00:31 21° NNW 04:04:08 10° NE
Cosmos 2061 Rocket 4.2 03:55:31 10° NNW 04:01:51 60° W 04:08:08 10° S
IRS-1D 3.7 03:57:13 10° NNE 04:02:17 73° ESE 04:07:15 10° S
Cosmos 371 Rocket 4.2 03:59:26 10° NNW 04:04:11 54° ENE 04:08:54 10° SE
Cosmos 1408 Rocket 4.1 04:03:00 10° S 04:07:14 58° E 04:11:29 10° NNE
Cosmos 1980 3.7 04:03:49 10° NW 04:09:26 65° WSW 04:15:02 10° SSE
Cosmos 1184 Rocket 4.2 04:07:50 10° NW 04:10:10 20° W 04:12:29 10° SW
Lacrosse 4 Rocket 3.2 04:11:42 10° NNW 04:15:30 37° NE 04:19:18 10° ESE
MSX 4.0 04:10:43 10° NNE 04:16:30 70° WNW 04:22:13 10° SSW
